Location: Newark
(26.0600°N, 83.1900°E)
Time: 04:37:01
(UTC+00:00)

Hubble Space Telescope - Visible Passes

Search period start: 21 August 2019 00:00
Search period end: 31 August 2019 00:00
Orbit: 536 x 540 km, 28.5° (Epoch: 20 August)

Date Brightness Start Highest point End Pass type
(mag) Time Alt. Az. Time Alt. Az. Time Alt. Az.
21 Aug 0.9 13:32:07 10° WNW 13:36:14 72° N 13:39:56 12° E visible
21 Aug 2.8 15:13:25 10° W 15:15:16 24° W 15:15:16 24° W visible
22 Aug 0.8 13:21:36 10° WNW 13:25:43 81° N 13:29:51 10° E visible
22 Aug 2.5 15:02:59 10° W 15:05:13 26° WSW 15:05:13 26° WSW visible
23 Aug 2.4 14:52:38 10° W 14:55:13 26° SW 14:55:13 26° SW visible
24 Aug 2.5 14:42:21 10° WSW 14:45:14 22° SW 14:45:14 22° SW visible
25 Aug 2.8 14:32:13 10° WSW 14:35:00 18° SSW 14:35:19 17° SSW visible
26 Aug 3.1 14:22:21 10° WSW 14:24:24 13° SSW 14:25:28 12° SSW visible
